Weather History for De Queen, AR

Change the Weather History Date:

Saturday, March 2, 2013

  Actual Average Record
Temperature  
Mean Temperature 38 °F 50 °F  
Max Temperature 50 °F 63 °F 82 °F (1976)
Min Temperature 26 °F 37 °F 20 °F (1947)
Degree Days  
Heating Degree Days 27 16  
Month to date heating degree days 54 32  
Since 1 July heating degree days 2369 2523  
Cooling Degree Days 0 0  
Month to date cooling degree days 0 0  
Year to date cooling degree days 4 2  
Moisture  
Dew Point 19 °F    
Average Humidity 56    
Maximum Humidity 85    
Minimum Humidity 26    
Precipitation  
Precipitation 0.00 in 0.09 in 7.63 in (2014)
Month to date precipitation 0.00 0.17  
Year to date precipitation 3.96 7.17  
Snow  
Snow 0.00 in - - ()
Month to date snowfall 0.0  
Since 1 July snowfall 4.5  
Snow Depth 0.00 in    
Sea Level Pressure  
Sea Level Pressure 30.28 in    
Wind  
Wind Speed 6 mph (NNW)    
Max Wind Speed 17 mph    
Max Gust Speed 23 mph    
Visibility 10 miles    
Events      
T = Trace of Precipitation, MM = Missing Value Source: NWS Daily Summary

Daily Weather History Graph

Daily Weather History Graph

Search for Another Location

Airport:

Trip Planner

Search our weather history database for the weather conditions in past years. The results will help you decide how hot, cold, wet, or windy it might be!

Date:

Astronomy

Mar. 02, 2013 Rise Set
Actual Time 6:44 AM CST 6:15 PM CST
Civil Twilight 6:19 AM CST 6:40 PM CST
Nautical Twilight 5:50 AM CST 7:09 PM CST
Astronomical Twilight 5:21 AM CST 7:38 PM CST
Moon 11:38 PM CST (3/2) 9:29 AM CST (3/2)
Length of Visible Light 12h 20m
Length of Day
11h 30m
Waning Gibbous, 74% of the Moon is Illuminated
Mar 2
Waning Gibbous
Mar 4
Last Quarter
Mar 11
New
Mar 19
First Quarter
Mar 27
Full

Hourly Weather History & Observations

Time (CST) Temp. Windchill Dew Point Humidity Pressure Visibility Wind Dir Wind Speed Gust Speed Precip Events Conditions
12:53 AM 35.1 °F 25.9 °F 19.0 °F 52% 30.26 in 10.0 mi North 13.8 mph 20.7 mph N/A   Overcast
1:53 AM 34.0 °F 25.5 °F 18.0 °F 52% 30.27 in 10.0 mi North 11.5 mph - N/A   Overcast
2:53 AM 33.1 °F 27.7 °F 16.0 °F 50% 30.27 in 10.0 mi North 5.8 mph - N/A   Overcast
3:53 AM 30.9 °F 27.5 °F 16.0 °F 54% 30.27 in 10.0 mi NNW 3.5 mph - N/A   Mostly Cloudy
4:53 AM 28.9 °F - 16.0 °F 58% 30.28 in 10.0 mi Calm Calm - N/A   Partly Cloudy
6:53 AM 28.0 °F 21.7 °F 19.0 °F 69% 30.32 in 10.0 mi WNW 5.8 mph - N/A   Clear
7:53 AM 30.9 °F 22.8 °F 21.0 °F 67% 30.35 in 9.0 mi WNW 9.2 mph - N/A   Clear
8:53 AM 34.0 °F 26.0 °F 21.0 °F 59% 30.36 in 8.0 mi NW 10.4 mph - N/A   Partly Cloudy
9:53 AM 36.0 °F 31.1 °F 21.0 °F 55% 30.36 in 9.0 mi North 5.8 mph - N/A   Mostly Cloudy
10:53 AM 39.0 °F 32.8 °F 21.0 °F 49% 30.34 in 10.0 mi NW 9.2 mph 17.3 mph N/A   Partly Cloudy
11:53 AM 41.0 °F 39.0 °F 19.0 °F 41% 30.32 in 10.0 mi NW 3.5 mph - N/A   Clear
12:53 PM 43.0 °F 37.7 °F 19.0 °F 38% 30.29 in 10.0 mi NW 9.2 mph - N/A   Clear
1:53 PM 46.9 °F - 19.0 °F 33% 30.25 in 10.0 mi WNW 8.1 mph - N/A   Clear
2:53 PM 48.9 °F - 15.1 °F 26% 30.24 in 10.0 mi North 11.5 mph 19.6 mph N/A   Clear
3:53 PM 50.0 °F - 17.1 °F 27% 30.23 in 10.0 mi NNW 10.4 mph 18.4 mph N/A   Clear
4:53 PM 48.9 °F - 17.1 °F 28% 30.24 in 10.0 mi NW 12.7 mph 19.6 mph N/A   Clear
5:53 PM 46.0 °F 41.9 °F 16.0 °F 30% 30.25 in 10.0 mi North 8.1 mph - N/A   Clear
7:53 PM 39.0 °F 36.8 °F 19.0 °F 45% 30.27 in 10.0 mi North 3.5 mph - N/A   Clear
8:53 PM 33.1 °F - 21.9 °F 64% 30.27 in 10.0 mi Calm Calm - N/A   Clear
9:53 PM 30.0 °F - 24.1 °F 79% 30.27 in 10.0 mi Calm Calm - N/A   Clear
10:53 PM 28.0 °F - 24.1 °F 85% 30.27 in 10.0 mi Calm Calm - N/A   Clear
11:53 PM 27.0 °F - 23.0 °F 85% 30.26 in 10.0 mi Calm Calm - N/A   Clear